DELTA 1 R/B, 2661

Orbit data source: Space-Track

DELTA 1 R/B, 2661 is space debris in SSO originally from a launch on Thu, 26 Jan 1967 UTC launched from the Air Force Western Test Range (AFWTR). Debris objects in space refer to the collection of defunct objects orbiting the Earth. Examples of debris include non-operational satellites, rocket bodies, and fragments generated from explosions, collisions, or faulty payload assembly.

Loading next visibility...
Identifier
2661, 1967-006B
Orbit
SSO
Country
Flag of USUS
Related business
Manufacturer
ABL
Mission
Spacecraft
Bus & Motor
ALTAIR, Unknown motor
Mass
33 kg wet, 33 kg dry
Launch date (UTC)
1967-01-26 (60 years ago)
Launch vehicle
Unknown
Launch site
Air Force Western Test Range (AFWTR)
Object type
Payload
Rocket body
Debris
Shape & HBR
CYL, 0.8 m
Radar Cross Section
Medium (>0.1 m² and <1 m²)

Expand to show TLE details & history
Last TLE update: 18 hours ago

TLE from 18 hours ago
0 DELTA 1 R/B
1  2661U 67006B   26238.22897911 -.00000038  00000-0  54052-4 0  9996
2  2661 101.9218 319.9287 0064515 277.4672 146.5127 12.68027191757039
Epoch: 2026-08-26T05:29Z
TLE epoch observation values (Epoch: 2026-08-26T05:29:43.795Z)
Latitude
62.00682°
Longitude
-120.26967°
Altitude
1,442.327 km
Speed
7.127 km/s
True Right ascension
19h 46m 35s
True Declination
61° 52' 36"
Sunlit
Object was in daylight at epoch
Visualization orbit readout
Latitude
Unknown
Longitude
Unknown
Altitude
Unknown
Speed
Unknown
Apparent Right ascension
Unknown
Apparent Declination
Unknown
Sunlit
N/A
Visualization observer readout
Local Sidereal Time
14:57:31
Azimuth
Unknown
Elevation
Unknown
Doppler factor
Unknown
Orbital elements
Apogee altitude
1,437.62 km
Perigee altitude
1,337.42 km
Semi-major axis
7,765.657 km
Eccentricity
0.00645
Inclination
101.9218°
RAAN
319.9287°
Arg. of periapsis
277.4672°
True anomaly
146.91787°
Mean anomaly
146.5127°
Eccentric anomaly
146.71556°
Mean motion
3.17158 °/min
Orbital period
113.51 mins
BSTAR
0.000054052
Loading maneuver chart data...
Computing Atmospheric mass density...
Loading historical data...
Loading historical data...
Loading historical data...
Loading historical data...
Loading historical data...
Loading historical data...
Loading historical data...
Other satellites on launch #6 in the year 1967 (1967-01-26 UTC)

Documentation

Showing up to 5 results
|